This is the latest recevied weather packets stored in our database for station/object SQ6RR-11. If no packets are shown the sender has not sent any weather packets the latest 1 day(s).
| Time | Temp. | Humidity | Pressure | Rain* | Wind** | Luminosity | Snow |
|---|---|---|---|---|---|---|---|
| 1778039871 | 13.89° C | 78% | 1005.7 hPa | 0 mm | - | - | - |
| 1778039588 | 13.89° C | 77% | 1005.6 hPa | 0 mm | - | - | - |
| 1778039332 | 13.89° C | 76% | 1005.8 hPa | 0 mm | - | - | - |
| 1778038781 | 14.44° C | 75% | 1005.8 hPa | 0 mm | - | - | - |
| 1778037977 | 13.89° C | 78% | 1005.8 hPa | 0 mm | - | - | - |
| 1778037412 | 13.89° C | 83% | 1005.9 hPa | 0 mm | - | - | - |
| 1778037137 | 13.89° C | 86% | 1006 hPa | 0 mm | - | - | - |
| 1778036857 | 13.33° C | 88% | 1005.9 hPa | 0 mm | - | - | - |
| 1778036297 | 13.33° C | 92% | 1005.9 hPa | 0 mm | - | - | - |
| 1778036045 | 13.89° C | 92% | 1005.9 hPa | 0 mm | - | - | - |
| 1778035777 | 13.89° C | 92% | 1005.9 hPa | 0 mm | - | - | - |
| 1778035494 | 13.33° C | 93% | 1005.8 hPa | 0 mm | - | - | - |
| 1778034957 | 13.33° C | 94% | 1005.8 hPa | 0 mm | - | - | - |
| 1778034687 | 13.33° C | 95% | 1005.7 hPa | 0 mm | - | - | - |
| 1778034405 | 13.33° C | 95% | 1005.8 hPa | 0 mm | - | - | - |
| 1778033877 | 13.33° C | 94% | 1005.8 hPa | 0 mm | - | - | - |
| 1778033347 | 13.33° C | 94% | 1006.1 hPa | 0 mm | - | - | - |
| 1778033067 | 13.33° C | 95% | 1006.1 hPa | 0 mm | - | - | - |
| 1778032524 | 13.33° C | 95% | 1006.7 hPa | 0 mm | - | - | - |
| 1778032256 | 13.33° C | 95% | 1006.8 hPa | 0 mm | - | - | - |
| 1778031977 | 13.33° C | 95% | 1006.9 hPa | 0 mm | - | - | - |
| 1778031692 | 13.33° C | 96% | 1006.9 hPa | 0 mm | - | - | - |
| 1778030672 | 12.78° C | 96% | 1007 hPa | 0 mm | - | - | - |
| 1778030415 | 12.78° C | 95% | 1006.9 hPa | 0 mm | - | - | - |
| 1778030152 | 12.78° C | 94% | 1006.9 hPa | 0 mm | - | - | - |
* Rain latest hour (hover to see other rain measurements)
** Current wind speed in m/s (hover to see current wind gust speed)